Starlink 31485

operational
NORAD ID: 59308 Int'l Des: 2024-056 Owner: SPXS Country: US Constellation: starlink
LEOCIRCULAR

Starlink 31485について

説明を読み込み中...

リアルタイム位置

3D地球を読み込み中...

次回通過

高度履歴

Altitude vs Time

uPlot chart will show altitude changes over time

軌道要素

1 59308U 24056N 25259.05804158 .00005455 00000-0 20749-3 0 9990
2 59308 43.0032 137.1933 0001259 261.7768 98.2941 15.27597247 84442
Epoch: Sep 16, 2025 • Age: 19 hours

現在のステータス

高度 489.9 km
速度 7.62 km/s
衛星直下点 -28.68°S, 160.65°E
打ち上げ日 Mar 24, 2024
運用期間 1.4 years
タイプ internet

技術仕様

分類 Payload
質量 730.00 kg
乾燥質量 700.00 kg
総質量 730.00 kg
長さ 0.30 m
直径 4.10 m
スパン 29.00 m
形状 Box + pan
製造者 SPXS
バスタイプ Starlink V2M
フェーズステータス In Orbit
所有者/国 SPXS/US

大規模コンステレーション

Loading constellations...